Regional Weather Roundup
Issued by NWS Sterling, VA

Home | Current Version | Previous Version | Graphics & Text | Print | Product List | Glossary On
Versions: 1 2 3 4 5 6 7 8 9 10 11 12 13 14 15 16 17 18 19 20 21 22 23 24 25 26 27 28 29 30 31 32 33 34 35 36 37 38 39 40 41 42 43 44 45 46 47 48 49 50
476
ASUS41 KLWX 252110
RWRLWX

REGIONAL WEATHER ROUNDUP
NATIONAL WEATHER SERVICE BALTIMORE MD/WASHINGTON DC
500 PM EDT SAT MAR 25 2017

Note: "FAIR" indicates few or no clouds below 12,000 feet
with no significant weather and/or obstructions to visibility.
 TC=TEMPERATURE CELSIUS

 * =Non NWS site. Station does not report precipitation (e.g. rain,
    snow, etc.), thunder, or fog.

DCZ001-MDZ009-015-VAZ040>042-051-053>054-252200-
WASHINGTON METRO

CITY           SKY/WX    TMP DP  RH WIND       PRES   REMARKS
WASHINGTON NAT CLOUDY    76  55  48 CALM      30.14S
DULLES         CLOUDY    77  49  37 CALM      30.13F
ANDREWS AFB    CLOUDY    77  51  40 CALM      30.13S
FT BELVOIR     LGT RAIN  79  50  36 SE3       30.13S
QUANTICO       PTSUNNY   67  52  58 S14       30.13F
COLLEGE PARK*  CLOUDY    77  52  41 SE3       30.13S
LEESBURG*      CLOUDY    77  55  47 NE3       30.14S
MANASSAS*        N/A     79  51  37 CALM      30.13S

$$

MDZ006>007-011-014-252200-
BALTIMORE METRO

CITY           SKY/WX    TMP DP  RH WIND       PRES   REMARKS
BWI AIRPORT    CLOUDY    76  53  44 W6        30.13R
MD SCIENCE CTR   N/A     70  49  47 MISG      30.14R
MARTIN STATE   CLOUDY    70  55  60 SE6       30.15S
ANNAPOLIS      PTSUNNY   60  50  69 SE8       30.15S
FORT MEADE*    CLOUDY    77  50  38 CALM      30.16S

$$

MDZ012-015-019>023-252200-
MARYLAND EASTERN SHORE

CITY           SKY/WX    TMP DP  RH WIND       PRES   REMARKS
OCEAN CITY     MOSUNNY   60  49  66 S8        30.16S
SALISBURY      CLOUDY    76  52  43 W10       30.15F
BAY BRIDGE AP* PTSUNNY   75  54  46 SE8       30.15R
CAMBRIDGE*     SUNNY     77  52  41 CALM      30.15S
EASTON*        MOSUNNY   75  50  41 SW5       30.19S

$$

MDZ017>025-252200-
SOUTHERN MARYLAND

CITY           SKY/WX    TMP DP  RH WIND       PRES   REMARKS
PATUXENT RIVER PTSUNNY   63  53  70 SE8       30.14S
ST INIGOES     MOSUNNY   75  53  46 SE5       30.13F
LEONARDTOWN*   MOSUNNY   77  50  38 W7        30.16S

$$

MDZ003>005-252200-
NORTH CENTRAL MARYLAND

CITY           SKY/WX    TMP DP  RH WIND       PRES   REMARKS
FREDERICK*     CLOUDY    77  57  50 CALM      30.16S
HAGERSTOWN APT CLOUDY    76  51  41 S5        30.13F
WESTMINSTER*   CLOUDY    73  55  53 CALM      30.15F

$$

MDZ501>502-252200-
WESTERN MARYLAND

CITY           SKY/WX    TMP DP  RH WIND       PRES   REMARKS
OAKLAND*       MOSUNNY   63  46  55 NW3       30.20F
CUMBERLAND*    MOSUNNY   77  46  33 CALM      30.17S

$$

VAZ025>031-252200-
SHENANDOAH VALLEY

CITY           SKY/WX    TMP DP  RH WIND       PRES   REMARKS
WINCHESTER*    CLOUDY    73  50  43 N6        30.14F
FRONT ROYAL*   CLOUDY    73  52  46 N3        30.13S
LURAY*         CLOUDY    75  54  46 CALM      30.13S
NEW MARKET*    CLOUDY    74  50  43 NE3       30.13S
STAUNTON*      CLOUDY    75  49  40 SW7       30.16S
WAYNESBORO*    PTSUNNY   74  51  44 E5        30.15S

$$

WVZ021-048>050-054>055-252200-
EASTERN WEST VIRGINIA PANHANDLE

CITY           SKY/WX    TMP DP  RH WIND       PRES   REMARKS
MARTINSBURG    CLOUDY    75  49  39 CALM      30.13S
PETERSBURG*    CLOUDY    76  53  43 CALM      30.14F

$$

VAZ036>039-050-252200-
CENTRAL FOOTHILLS

CITY           SKY/WX    TMP DP  RH WIND       PRES   REMARKS
CHARLOTTESVILL MOSUNNY   79  50  36 SE10      30.12F
CULPEPER*      CLOUDY    79  53  39 S5        30.13S
ORANGE*        MOSUNNY   79  50  36 SE7       30.14S
GORDONSVILLE*  MOSUNNY   79  52  39 S10       30.12S
WARRENTON*     CLOUDY    78  47  33 CALM      30.12S

$$

VAZ055>057-252200-
NORTH AND CENTRAL PIEDMONT

CITY           SKY/WX    TMP DP  RH WIND       PRES   REMARKS
FREDERICKSBRG* CLOUDY    80  53  39 SW6       30.12S
STAFFORD*      CLOUDY    78  50  37 SW7       30.16F

$$

NCZ024-NYZ072-PAZ021-071-VAZ022-071-252200-
OTHER REGIONAL OBSERVATIONS

CITY           SKY/WX    TMP DP  RH WIND       PRES   REMARKS
NEW YORK CITY  MOSUNNY   52  39  61 NE10G18   30.28R
PHILADELPHIA   LGT RAIN  68  55  63 NE6       30.17R
PITTSBURGH     CLOUDY    72  52  49 CALM      30.13F
ROANOKE        CLOUDY    74  50  42 SE10      30.16F
RICHMOND       CLOUDY    76  51  41 S14G20    30.16S
RALEIGH        PTSUNNY   74  48  39 SW12      30.20F

$$

ANZ530>537-252200-
MARINE OBSERVATIONS

STATION/POSITION TIME  TEMP    WIND        PRES
                       AIR SEA DIR/SP/G
                 (UTC) (F)     (DEG/KT/KT) (MB)
THOMAS PT LIGHT  2100   69 45  150/ 10/ 10   N/A
BALT KEY BRIDGE  2048   67     140/ 10/ 12 1020.2F
COVE POINT       2048   58     180/ 13/ 14 1021.4S
LEWISETTA        2048   61 49  100/  3/  4 1020.4F
SOLOMONS ISLAND  2048   60 49   80/  9/ 10   N/A
PINEY POINT      2048          130/  4/  5   N/A

$$





USA.gov is the U.S. government's official web portal to all federal, state and local government web resources and services.